Wind_Speed
9 8 8 9 8 8 8 9 10 10 11 11 12 13 13 13 13 12 11 11 11 11 11 12 11 5 3 5 6 4 3 14 12 12 9 3 2 1 1 3 2 2 0 3 2 5 8
8 8 7 7 8 9 9 9 10 10 12 12 13 13 14 14 13 13 12 11 10 12 11 10 11 6 4 4 6 5 5 12 14 13 10 7 3 4 2 2 1 3 3 5 4 6 11
9 9 8 7 7 8 8 9 10 11 12 12 13 14 14 14 14 14 13 12 11 12 11 11 9 7 7 9 5 6 7 6 7 9 11 8 8 2 3 2 2 7 4 3 2 6 5
10 10 10 9 9 8 9 9 10 10 11 13 13 14 15 15 15 14 13 12 11 11 10 10 9 7 6 5 14 11 7 6 9 9 7 7 8 5 2 5 5 4 4 1 3 7 1
10 10 9 9 9 9 9 10 11 11 12 13 14 14 14 15 15 14 11 10 10 9 7 7 8 5 6 8 12 15 13 9 7 7 10 5 4 4 3 5 4 6 3 3 6 11 3
12 12 12 11 10 10 10 10 11 11 12 13 14 14 14 15 15 13 10 8 5 1 4 4 7 4 10 4 5 10 11 11 9 7 7 5 3 3 3 3 4 6 3 4 6 5 5
14 13 12 12 12 12 11 10 11 11 11 13 14 14 13 14 13 12 9 0 1 2 5 5 3 5 3 1 5 8 9 10 9 5 5 2 4 5 8 7 1 3 4 6 6 7 6
14 13 12 12 12 12 12 12 11 11 11 12 13 13 12 12 8 11 9 8 9 3 7 12 19 20 17 14 6 8 9 9 7 4 5 5 5 6 2 3 4 3 3 7 6 4 8
15 14 13 12 12 12 12 12 12 12 11 12 13 13 10 10 3 5 12 13 6 7 2 9 13 16 20 8 6 7 9 7 4 5 5 6 5 4 3 3 4 3 4 3 6 3 1
15 15 15 15 15 14 13 13 13 13 12 12 12 12 10 5 2 3 4 6 5 2 5 6 4 5 14 10 5 16 9 6 2 9 8 4 3 5 3 5 6 4 5 1 3 4 3
17 16 16 17 17 17 16 15 14 14 13 12 12 12 8 7 5 1 1 4 3 1 5 4 3 2 8 14 3 6 16 7 8 6 6 8 3 4 5 6 6 7 3 2 2 2 2
19 17 16 15 14 14 15 15 15 14 14 13 12 12 9 8 5 3 3 3 2 6 6 4 2 1 4 2 2 2 5 7 4 4 2 7 2 4 5 2 2 4 4 7 5 3 1
21 18 16 14 13 12 13 13 14 13 14 12 11 11 9 8 5 3 4 1 5 5 4 1 1 4 1 4 2 3 3 5 6 4 3 3 3 3 2 3 2 5 6 2 3 3 6
21 19 17 15 15 14 13 13 13 12 13 13 11 10 8 7 5 3 6 4 4 4 5 4 1 1 5 5 4 4 4 4 1 5 3 6 6 6 3 6 7 5 7 5 5 3 4
23 21 19 17 15 14 13 12 12 11 11 12 10 8 5 4 3 4 7 2 7 5 3 5 4 2 2 3 5 3 5 5 8 7 7 5 5 3 3 3 8 4 3 4 6 2 1
25 23 21 18 16 14 13 12 10 10 10 9 7 4 3 4 3 6 4 4 4 3 4 3 2 1 2 3 3 5 5 4 6 12 6 6 1 2 1 4 4 6 6 3 3 3 4
27 24 22 18 16 14 12 10 8 8 8 6 4 1 4 5 5 3 4 6 5 4 4 1 2 3 1 3 1 3 3 4 5 3 4 5 4 4 2 4 8 2 2 5 4 4 4
29 25 23 19 17 14 12 9 7 6 6 3 2 2 5 6 3 3 3 4 3 3 2 2 1 2 1 2 2 1 3 4 8 4 9 6 5 5 8 2 2 3 6 6 5 4 1
32 28 24 20 17 14 12 9 6 5 3 2 2 3 4 5 3 2 3 2 2 2 3 3 2 3 2 1 2 2 2 5 6 3 8 8 2 1 7 5 4 3 3 4 5 3 6
34 29 26 22 18 16 14 9 6 4 2 4 2 2 3 4 3 4 3 2 2 2 3 4 4 2 1 2 3 3 3 4 11 4 6 6 3 8 10 7 5 5 5 4 6 4 5
34 32 29 24 20 18 15 11 6 3 2 4 2 0 2 2 1 2 1 1 1 2 2 3 1 5 3 3 3 4 2 5 4 11 5 2 6 5 6 7 7 8 7 9 7 6 7
36 34 31 26 23 20 18 13 9 5 3 4 3 3 3 2 1 2 1 1 1 4 3 3 4 7 2 2 3 4 7 1 0 6 6 6 4 4 4 4 7 4 5 9 4 3 6
38 35 34 31 25 22 21 16 12 7 4 3 4 5 3 1 1 3 2 2 2 3 2 7 4 4 4 3 16 19 13 15 6 1 3 4 4 1 4 2 3 5 7 8 5 5 7
42 38 40 33 29 25 23 19 15 10 6 5 7 7 3 2 2 3 2 1 1 0 2 7 8 1 5 20 17 11 12 12 13 11 8 1 3 3 2 3 3 6 1 7 9 7 10
39 40 38 34 32 29 26 21 17 13 9 7 7 5 4 2 2 2 2 2 1 2 2 4 1 4 15 11 3 4 4 4 5 8 7 8 4 2 2 4 5 3 5 8 8 10 10
40 42 40 39 35 31 27 24 20 16 12 9 9 7 4 6 4 3 3 2 2 0 4 3 4 7 6 3 2 3 4 3 4 2 2 7 3 4 2 3 7 8 4 9 6 5 7
40 42 41 41 37 33 29 25 22 18 14 11 8 9 6 2 5 5 3 3 2 2 1 2 8 4 5 2 1 3 4 3 4 3 4 5 2 7 3 4 7 7 5 8 5 8 4
41 40 36 39 37 34 30 27 24 20 17 13 10 10 11 5 4 7 6 3 2 2 2 4 3 3 4 1 1 2 4 3 3 4 4 8 7 4 2 3 7 6 3 7 8 5 5
34 43 40 42 37 34 30 28 24 22 19 15 11 11 9 6 3 4 12 16 10 5 1 0 2 3 1 1 2 2 2 1 3 4 5 4 3 4 9 7 7 10 7 16 5 6 7
Wind_Direction
288 297 305 309 315 317 319 322 325 328 330 329 329 328 326 321 314 303 300 305 296 299 311 326 337 307 243 233 238 184 163 183 187 200 213 224 312 112 342 274 355 142 205 72 75 129 162
278 283 290 298 306 314 319 325 326 328 329 332 331 329 326 323 319 310 300 300 300 294 290 302 323 305 259 240 239 247 156 184 194 202 214 228 271 316 290 247 181 134 105 101 126 130 155
271 277 281 289 296 308 314 319 325 329 331 332 331 331 328 324 321 317 305 294 294 296 284 283 302 292 258 244 211 168 165 178 203 222 231 253 267 253 321 23 85 114 72 29 188 176 161
264 264 271 279 287 295 304 310 318 322 325 328 331 332 332 326 320 314 313 299 292 288 280 269 291 279 251 226 226 207 200 230 227 220 211 241 256 261 192 134 56 59 47 73 248 164 239
278 274 270 273 279 288 298 305 312 318 323 324 327 331 335 329 320 319 320 310 300 291 266 254 276 254 258 225 229 223 232 244 224 247 231 244 194 200 138 93 35 13 236 228 308 194 130
284 286 285 280 279 282 288 295 302 311 318 321 325 332 337 330 325 328 329 322 317 300 212 251 242 265 245 175 195 221 225 232 246 262 200 212 201 91 50 95 224 237 217 229 233 211 180
281 285 289 286 283 285 287 291 297 304 312 317 323 332 337 332 333 342 355 323 242 279 226 220 183 245 256 321 204 205 210 221 211 186 144 133 99 216 225 210 108 196 204 213 242 195 154
275 277 285 289 283 279 283 288 295 302 310 316 320 329 337 332 335 359 5 79 66 332 311 247 251 253 253 276 309 197 190 177 170 159 117 47 221 222 206 191 226 242 232 238 292 170 182
275 275 280 285 286 282 279 281 287 295 304 313 320 327 336 330 331 10 53 70 45 355 305 289 246 245 246 251 235 237 197 180 143 135 168 165 217 118 177 287 222 226 189 225 221 49 278
273 272 274 281 286 287 283 282 287 293 300 308 314 321 330 332 309 4 58 38 357 356 53 282 273 252 204 203 258 227 198 190 106 181 156 214 263 227 224 251 170 242 209 190 136 116 236
273 270 271 278 282 288 283 282 288 295 298 303 309 313 321 330 316 325 85 12 4 35 27 262 253 312 176 175 172 191 209 205 160 169 124 233 195 209 194 209 166 226 140 119 146 130 89
266 268 269 275 277 285 281 280 286 292 295 300 303 307 309 309 311 258 225 349 100 46 251 337 291 147 92 256 202 86 158 181 162 119 75 211 235 179 207 130 176 141 80 41 49 55 50
258 260 263 270 278 287 281 280 282 290 293 296 300 300 299 299 289 279 215 147 48 132 295 317 58 30 222 203 236 151 161 160 158 126 208 343 254 300 176 122 46 74 67 347 345 357 221
251 254 258 266 273 285 290 284 284 289 294 299 299 295 292 281 279 254 167 62 111 233 261 327 313 261 179 162 237 207 141 172 164 104 116 172 303 181 195 182 183 184 155 160 213 208 263
243 249 254 263 267 272 284 286 284 286 292 300 301 298 281 250 242 189 167 132 205 211 298 337 300 154 225 193 188 162 200 213 196 175 166 157 268 283 205 147 138 193 170 182 112 11 63
239 244 246 257 259 264 276 280 286 287 295 304 306 301 192 175 162 162 90 227 232 229 347 359 293 16 143 323 181 159 196 220 207 195 165 201 277 233 289 112 44 159 156 80 4 143 236
235 239 240 249 253 259 264 267 283 291 297 306 302 191 159 165 160 166 158 224 272 274 259 324 311 323 31 57 231 187 215 265 211 188 113 135 131 282 123 196 180 133 155 55 116 135 171
231 233 234 240 247 250 251 259 276 289 295 274 218 85 149 164 91 82 160 198 313 318 343 308 253 272 52 29 10 271 226 241 21 167 161 204 149 193 207 300 240 179 185 143 128 212 175
229 227 227 233 237 238 237 243 263 287 299 210 206 141 168 181 150 213 264 285 275 329 354 354 300 358 23 319 337 240 274 301 2 177 180 183 225 81 337 355 356 203 165 107 103 85 188
221 223 222 225 227 225 225 225 244 270 269 186 193 59 135 175 133 143 154 200 264 306 245 263 276 312 271 267 222 287 313 297 349 22 321 192 162 169 213 208 164 182 186 164 132 122 175
220 217 214 219 219 215 215 215 221 246 247 176 148 137 126 187 228 149 155 56 109 298 356 344 356 32 319 268 227 218 247 320 354 7 35 111 219 190 225 214 179 194 179 170 182 193 169
219 216 213 212 214 211 210 204 213 211 215 188 136 134 121 90 108 126 99 52 353 350 333 355 56 326 329 251 29 328 8 0 168 339 19 355 282 206 240 185 202 237 206 185 202 134 265
216 217 210 208 208 206 206 202 206 204 196 159 155 144 147 23 104 112 179 114 78 357 34 91 348 339 323 20 317 293 280 269 273 3 359 31 354 72 248 186 120 326 212 195 189 198 157
215 214 209 205 205 205 204 203 204 200 192 184 169 156 153 192 167 153 107 143 122 252 253 316 340 256 318 318 308 287 270 262 246 244 208 271 35 352 210 64 238 235 201 172 196 208 204
216 208 205 204 203 203 203 204 204 201 193 189 166 169 167 138 127 152 135 142 288 296 273 281 319 310 315 314 335 331 325 309 243 206 185 185 120 291 163 212 290 283 196 170 166 256 193
210 207 203 201 198 201 203 205 205 204 198 194 187 186 164 124 231 171 148 161 161 44 337 279 286 335 340 32 94 186 225 247 284 252 214 149 125 155 136 234 221 223 233 180 126 277 227
214 210 206 201 195 199 201 202 204 205 201 197 187 193 181 174 192 176 181 172 167 129 158 310 331 341 16 67 197 191 245 302 255 231 165 130 152 196 160 234 288 253 216 159 130 233 278
211 204 200 197 195 196 198 200 203 205 201 199 195 197 202 206 208 202 188 160 178 164 134 309 17 359 1 235 200 220 246 261 284 292 230 186 167 193 105 159 263 210 135 169 211 225 250
214 206 205 193 192 192 195 197 198 200 197 195 192 198 209 227 254 241 241 251 244 231 198 334 117 9 297 304 30 323 287 273 269 259 323 260 211 226 188 210 229 213 244 213 219 262 257
Height
1545 1543 1542 1542 1542 1541 1540 1538 1536 1535 1534 1533 1531 1530 1528 1527 1526 1525 1524 1524 1523 1522 1522 1521 1520 1520 1520 1521 1519 1520 1520 1523 1525 1527 1529 1530 1530 1530 1531 1530 1529 1531 1531 1531 1531 1531 1534
1543 1543 1542 1541 1541 1540 1538 1536 1536 1534 1532 1531 1529 1528 1527 1525 1523 1522 1522 1522 1521 1520 1520 1519 1519 1519 1520 1520 1518 1518 1519 1521 1523 1525 1527 1528 1529 1529 1529 1529 1530 1529 1530 1532 1534 1534 1535
1543 1542 1542 1541 1540 1539 1537 1536 1535 1533 1531 1529 1527 1526 1525 1523 1522 1520 1519 1519 1518 1517 1517 1517 1517 1517 1518 1517 1517 1517 1519 1521 1522 1524 1526 1527 1528 1528 1528 1529 1529 1530 1534 1534 1535 1535 1536
1541 1541 1541 1540 1539 1538 1537 1536 1534 1532 1531 1529 1527 1525 1523 1521 1520 1518 1517 1516 1515 1515 1515 1516 1516 1515 1514 1514 1515 1516 1518 1520 1521 1522 1524 1526 1526 1527 1527 1528 1531 1535 1539 1546 1534 1534 1536
1539 1538 1538 1538 1537 1537 1535 1534 1533 1532 1531 1528 1526 1525 1522 1519 1517 1515 1514 1513 1512 1512 1513 1514 1515 1515 1512 1512 1513 1515 1516 1518 1520 1522 1523 1524 1524 1525 1526 1532 1541 1544 1551 1548 1539 1533 1535
1537 1536 1536 1535 1535 1535 1534 1533 1532 1531 1529 1527 1525 1523 1521 1519 1516 1513 1512 1511 1510 1511 1512 1513 1514 1517 1511 1510 1510 1512 1514 1516 1518 1520 1522 1524 1525 1526 1529 1534 1555 1548 1546 1543 1541 1533 1535
1534 1534 1533 1532 1532 1532 1532 1531 1530 1529 1528 1526 1524 1522 1521 1518 1515 1512 1511 1510 1513 1513 1511 1511 1511 1509 1508 1509 1508 1510 1512 1514 1516 1519 1522 1522 1530 1535 1529 1528 1528 1532 1538 1538 1529 1528 1534
1532 1532 1531 1530 1530 1529 1529 1528 1528 1527 1527 1525 1523 1522 1521 1518 1515 1514 1512 1510 1514 1518 1512 1508 1507 1507 1507 1509 1510 1509 1511 1513 1514 1519 1520 1526 1533 1524 1524 1525 1528 1530 1536 1536 1526 1524 1530
1529 1529 1529 1528 1527 1527 1526 1526 1525 1525 1524 1524 1522 1521 1520 1517 1517 1517 1514 1514 1516 1515 1515 1504 1502 1502 1505 1509 1508 1507 1509 1509 1512 1518 1520 1527 1522 1521 1522 1525 1529 1529 1533 1530 1529 1527 1528
1526 1526 1526 1526 1525 1524 1524 1524 1523 1523 1522 1522 1520 1519 1519 1517 1519 1517 1516 1516 1516 1515 1524 1508 1502 1498 1501 1505 1506 1504 1506 1510 1511 1517 1520 1521 1517 1519 1522 1526 1527 1532 1520 1521 1525 1534 1542
1524 1524 1523 1523 1523 1522 1522 1521 1521 1521 1521 1520 1520 1518 1517 1517 1517 1517 1518 1517 1516 1517 1558 1503 1499 1498 1498 1501 1502 1501 1504 1506 1511 1513 1518 1523 1518 1520 1523 1521 1520 1526 1519 1522 1525 1535 1535
1521 1520 1521 1520 1520 1520 1519 1519 1518 1518 1518 1518 1518 1517 1517 1517 1516 1517 1517 1517 1518 1536 1548 1504 1498 1498 1500 1500 1500 1501 1502 1505 1508 1512 1514 1516 1514 1515 1515 1515 1516 1517 1522 1531 1537 1544 1554
1517 1517 1518 1518 1518 1517 1517 1516 1516 1516 1515 1516 1516 1515 1515 1515 1515 1516 1517 1518 1533 1552 1510 1504 1501 1499 1501 1503 1502 1501 1504 1507 1514 1525 1525 1519 1516 1513 1513 1516 1517 1521 1535 1564 1559 1568 1563
1513 1514 1514 1515 1515 1515 1514 1514 1514 1514 1513 1513 1513 1513 1513 1513 1514 1515 1516 1521 1547 1519 1515 1503 1500 1499 1503 1501 1502 1502 1505 1511 1507 1512 1531 1532 1537 1515 1510 1514 1522 1525 1532 1562 1558 1566 1555
1508 1510 1510 1512 1512 1512 1512 1512 1511 1511 1511 1511 1511 1511 1511 1511 1512 1514 1516 1530 1526 1516 1508 1508 1502 1500 1501 1499 1501 1503 1507 1510 1505 1506 1522 1532 1529 1510 1508 1509 1513 1525 1535 1529 1548 1556 1557
1502 1505 1507 1508 1508 1510 1510 1509 1510 1509 1509 1509 1509 1509 1510 1510 1511 1513 1517 1522 1516 1510 1509 1508 1507 1503 1505 1505 1503 1505 1507 1500 1502 1501 1500 1513 1525 1511 1508 1509 1513 1516 1520 1543 1557 1561 1555
1496 1500 1503 1504 1505 1507 1508 1508 1507 1507 1508 1507 1508 1508 1509 1510 1511 1513 1527 1521 1513 1508 1509 1509 1509 1507 1505 1507 1505 1507 1503 1498 1496 1498 1501 1508 1519 1518 1511 1514 1518 1522 1525 1534 1539 1550 1557
1489 1494 1498 1500 1502 1504 1505 1505 1505 1506 1505 1506 1507 1509 1509 1510 1514 1515 1518 1515 1511 1509 1508 1507 1507 1507 1507 1505 1505 1503 1505 1500 1496 1498 1504 1504 1515 1526 1516 1509 1509 1510 1515 1522 1548 1543 1551
1482 1488 1492 1496 1498 1501 1502 1504 1504 1504 1503 1505 1506 1506 1509 1510 1518 1517 1514 1512 1511 1510 1509 1509 1508 1507 1507 1506 1507 1504 1500 1496 1495 1497 1500 1500 1518 1537 1521 1518 1512 1510 1513 1520 1528 1535 1544
1475 1481 1487 1492 1494 1497 1500 1502 1503 1503 1502 1504 1506 1509 1508 1509 1510 1511 1512 1512 1511 1510 1510 1509 1509 1507 1508 1507 1504 1505 1503 1496 1495 1495 1496 1496 1506 1509 1516 1513 1513 1512 1512 1519 1521 1545 1537
1468 1474 1481 1487 1490 1494 1497 1500 1500 1502 1502 1504 1505 1507 1507 1509 1512 1510 1511 1512 1511 1511 1509 1508 1508 1512 1512 1510 1505 1505 1502 1500 1496 1497 1495 1499 1505 1504 1501 1497 1502 1501 1505 1515 1517 1515 1523
1461 1468 1475 1482 1486 1490 1494 1497 1499 1501 1502 1504 1504 1505 1507 1510 1510 1511 1510 1511 1511 1512 1511 1510 1513 1513 1511 1511 1512 1511 1509 1502 1502 1499 1501 1501 1503 1499 1498 1496 1500 1499 1499 1506 1507 1510 1510
1454 1461 1469 1476 1481 1486 1492 1494 1497 1500 1501 1502 1504 1505 1507 1511 1511 1512 1514 1514 1516 1514 1513 1514 1515 1514 1512 1512 1512 1508 1507 1504 1505 1503 1505 1508 1511 1509 1504 1495 1499 1513 1499 1500 1501 1499 1500
1447 1455 1461 1469 1476 1483 1487 1492 1495 1498 1500 1503 1503 1506 1509 1514 1513 1512 1514 1515 1516 1516 1517 1514 1514 1513 1512 1511 1507 1503 1501 1499 1500 1500 1502 1505 1510 1522 1518 1505 1523 1489 1482 1483 1489 1488 1490
1439 1446 1455 1463 1472 1478 1483 1489 1492 1495 1499 1502 1503 1506 1508 1513 1512 1515 1515 1516 1516 1516 1517 1516 1514 1515 1512 1509 1508 1506 1508 1499 1493 1492 1497 1499 1509 1519 1523 1514 1498 1482 1481 1484 1486 1484 1480
1432 1440 1449 1457 1466 1473 1479 1485 1490 1493 1497 1501 1503 1505 1508 1509 1512 1514 1514 1516 1517 1517 1517 1515 1514 1512 1511 1510 1512 1515 1509 1500 1496 1486 1486 1494 1498 1509 1523 1511 1508 1486 1471 1472 1474 1491 1469
1424 1433 1443 1451 1460 1469 1475 1481 1486 1491 1495 1499 1502 1505 1507 1509 1512 1513 1513 1514 1515 1516 1517 1516 1514 1511 1510 1512 1512 1512 1506 1499 1499 1490 1492 1498 1505 1507 1519 1511 1494 1474 1470 1472 1490 1490 1465
1419 1428 1437 1447 1456 1464 1471 1478 1484 1489 1493 1497 1501 1504 1507 1509 1509 1510 1511 1512 1513 1514 1516 1516 1515 1514 1514 1514 1510 1508 1508 1504 1501 1493 1488 1490 1498 1508 1511 1513 1501 1467 1471 1475 1467 1461 1463
1413 1422 1432 1442 1452 1461 1468 1475 1481 1486 1491 1496 1500 1502 1505 1507 1508 1508 1509 1510 1512 1514 1515 1515 1517 1517 1517 1516 1516 1515 1508 1506 1502 1498 1487 1492 1487 1487 1486 1481 1464 1461 1459 1458 1459 1461 1461